Time,TemperatureF,DewpointF,PressureIn,WindDirection,WindDirectionDegrees,WindSpeedMPH,WindSpeedGustMPH,Humidity,HourlyPrecipIn,Conditions,Clouds,dailyrainin,SoftwareType,DateUTC
2013-04-20 00:01:00,49.8,48.4,29.82,WNW,296,1.0,2.0,95,0.00,,,0.09,meteohub,2013-04-20 04:01:00,
2013-04-20 00:06:00,49.6,48.2,29.81,WNW,291,0.0,2.0,95,0.01,,,0.00,meteohub,2013-04-20 04:06:00,
2013-04-20 00:11:00,49.6,48.2,29.80,WNW,291,0.0,2.0,95,0.01,,,0.00,meteohub,2013-04-20 04:11:00,
2013-04-20 00:16:00,49.5,48.0,29.81,WNW,295,1.0,2.0,95,0.01,,,0.00,meteohub,2013-04-20 04:16:00,
2013-04-20 00:21:00,49.5,48.0,29.80,WNW,295,0.0,2.0,95,0.01,,,0.00,meteohub,2013-04-20 04:21:00,
2013-04-20 00:26:00,49.5,48.4,29.80,WNW,295,0.0,2.0,96,0.01,,,0.00,meteohub,2013-04-20 04:26:00,
2013-04-20 00:31:00,49.5,48.4,29.81,WNW,295,0.0,2.0,96,0.01,,,0.00,meteohub,2013-04-20 04:31:00,
2013-04-20 00:36:00,49.6,48.6,29.81,WNW,295,0.0,1.0,96,0.01,,,0.00,meteohub,2013-04-20 04:36:00,
2013-04-20 00:41:00,49.6,48.6,29.81,WNW,295,0.0,2.0,96,0.01,,,0.00,meteohub,2013-04-20 04:41:00,
2013-04-20 00:46:00,49.6,48.6,29.81,WNW,295,1.0,2.0,96,0.01,,,0.00,meteohub,2013-04-20 04:46:00,
2013-04-20 00:51:00,49.6,48.6,29.81,NW,323,1.0,2.0,96,0.01,,,0.00,meteohub,2013-04-20 04:51:00,
2013-04-20 00:56:00,49.6,48.6,29.80,NW,323,1.0,3.0,96,0.01,,,0.00,meteohub,2013-04-20 04:56:00,
2013-04-20 01:01:00,49.5,48.4,29.80,NNW,340,0.0,3.0,96,0.00,,,0.00,meteohub,2013-04-20 05:01:00,
2013-04-20 01:06:00,49.5,48.4,29.80,NNW,340,0.0,3.0,96,0.00,,,0.00,meteohub,2013-04-20 05:06:00,
2013-04-20 01:11:00,49.3,48.2,29.81,West,275,0.0,2.0,96,0.00,,,0.00,meteohub,2013-04-20 05:11:00,
2013-04-20 01:16:00,49.1,48.0,29.82,West,275,0.0,2.0,96,0.00,,,0.00,meteohub,2013-04-20 05:16:00,
2013-04-20 01:21:00,48.9,47.8,29.83,West,275,0.0,2.0,96,0.00,,,0.00,meteohub,2013-04-20 05:21:00,
2013-04-20 01:26:00,48.9,47.8,29.83,West,275,0.0,2.0,96,0.00,,,0.00,meteohub,2013-04-20 05:26:00,
2013-04-20 01:31:00,48.7,47.7,29.83,West,275,0.0,0.0,96,0.00,,,0.00,meteohub,2013-04-20 05:31:00,
2013-04-20 01:36:00,48.7,47.7,29.83,West,275,0.0,1.0,96,0.00,,,0.00,meteohub,2013-04-20 05:36:00,
2013-04-20 01:41:00,48.9,47.8,29.83,West,275,0.0,1.0,96,0.00,,,0.00,meteohub,2013-04-20 05:41:00,
2013-04-20 01:46:00,48.7,47.7,29.83,West,275,0.0,1.0,96,0.00,,,0.00,meteohub,2013-04-20 05:46:00,
2013-04-20 01:51:00,48.7,47.7,29.82,West,275,0.0,1.0,96,0.00,,,0.00,meteohub,2013-04-20 05:51:00,
2013-04-20 01:56:00,48.7,47.7,29.82,West,275,0.0,1.0,96,0.00,,,0.00,meteohub,2013-04-20 05:56:00,
2013-04-20 02:01:00,48.7,47.7,29.83,West,275,1.0,2.0,96,0.00,,,0.00,meteohub,2013-04-20 06:01:00,
2013-04-20 02:07:00,48.6,47.5,29.83,West,275,0.0,2.0,96,0.00,,,0.00,meteohub,2013-04-20 06:07:00,
2013-04-20 02:12:00,48.4,47.3,29.84,NNW,342,0.0,3.0,96,0.00,,,0.00,meteohub,2013-04-20 06:12:00,
2013-04-20 02:17:00,48.2,47.1,29.84,NNW,338,0.0,3.0,96,0.00,,,0.00,meteohub,2013-04-20 06:17:00,
2013-04-20 02:22:00,47.8,46.8,29.84,West,267,2.0,3.0,96,0.01,,,0.01,meteohub,2013-04-20 06:22:00,
2013-04-20 02:27:00,47.5,46.0,29.84,WNW,292,2.0,5.0,95,0.01,,,0.01,meteohub,2013-04-20 06:27:00,
2013-04-20 02:32:00,47.5,46.0,29.85,NNW,331,0.0,8.0,95,0.01,,,0.01,meteohub,2013-04-20 06:32:00,
2013-04-20 02:37:00,47.5,46.0,29.84,NNW,333,0.0,8.0,95,0.01,,,0.01,meteohub,2013-04-20 06:37:00,
2013-04-20 02:42:00,47.1,45.7,29.84,NNW,329,1.0,4.0,95,0.01,,,0.01,meteohub,2013-04-20 06:42:00,
2013-04-20 02:47:00,47.1,45.7,29.85,West,279,1.0,4.0,95,0.01,,,0.01,meteohub,2013-04-20 06:47:00,
2013-04-20 02:52:00,47.1,45.7,29.85,West,271,1.0,4.0,95,0.01,,,0.01,meteohub,2013-04-20 06:52:00,
2013-04-20 02:57:00,47.1,45.7,29.85,NW,325,2.0,2.0,95,0.01,,,0.01,meteohub,2013-04-20 06:57:00,
2013-04-20 03:02:00,46.9,45.3,29.85,NW,324,2.0,3.0,94,0.01,,,0.01,meteohub,2013-04-20 07:02:00,
2013-04-20 03:07:00,46.8,44.8,29.85,NW,317,1.0,6.0,93,0.01,,,0.01,meteohub,2013-04-20 07:07:00,
2013-04-20 03:12:00,46.6,44.1,29.85,WNW,289,2.0,6.0,91,0.01,,,0.01,meteohub,2013-04-20 07:12:00,
2013-04-20 03:17:00,46.6,43.5,29.86,WNW,289,1.0,6.0,89,0.01,,,0.01,meteohub,2013-04-20 07:17:00,
2013-04-20 03:22:00,46.8,43.2,29.86,NW,306,3.0,7.0,87,0.00,,,0.01,meteohub,2013-04-20 07:22:00,
2013-04-20 03:27:00,46.8,42.4,29.87,West,271,4.0,9.0,85,0.00,,,0.01,meteohub,2013-04-20 07:27:00,
2013-04-20 03:32:00,46.9,42.4,29.87,NW,306,4.0,9.0,84,0.00,,,0.01,meteohub,2013-04-20 07:32:00,
2013-04-20 03:37:00,47.1,41.5,29.88,NW,309,1.0,9.0,81,0.00,,,0.01,meteohub,2013-04-20 07:37:00,
2013-04-20 03:42:00,47.3,40.8,29.88,WNW,292,3.0,9.0,78,0.00,,,0.01,meteohub,2013-04-20 07:42:00,
2013-04-20 03:47:00,47.8,40.3,29.89,NW,313,2.0,16.0,75,0.00,,,0.01,meteohub,2013-04-20 07:47:00,
2013-04-20 03:52:00,48.0,39.0,29.89,North,5,3.0,16.0,71,0.00,,,0.01,meteohub,2013-04-20 07:52:00,
2013-04-20 03:57:00,48.0,39.0,29.89,NW,311,1.0,16.0,71,0.00,,,0.01,meteohub,2013-04-20 07:57:00,
2013-04-20 04:02:00,48.0,38.7,29.90,WNW,293,4.0,12.0,70,0.00,,,0.01,meteohub,2013-04-20 08:02:00,
2013-04-20 04:07:00,48.0,39.0,29.90,NW,319,1.0,10.0,71,0.00,,,0.01,meteohub,2013-04-20 08:07:00,
2013-04-20 04:12:00,48.0,39.0,29.91,West,277,2.0,10.0,71,0.00,,,0.01,meteohub,2013-04-20 08:12:00,
2013-04-20 04:17:00,48.2,37.4,29.91,NNW,337,3.0,10.0,66,0.00,,,0.01,meteohub,2013-04-20 08:17:00,
2013-04-20 04:22:00,48.6,36.5,29.92,NNW,329,6.0,9.0,63,0.00,,,0.01,meteohub,2013-04-20 08:22:00,
2013-04-20 04:27:00,48.7,37.0,29.91,NW,313,3.0,12.0,64,0.00,,,0.01,meteohub,2013-04-20 08:27:00,
2013-04-20 04:32:00,48.7,37.0,29.92,NNW,331,6.0,12.0,64,0.00,,,0.01,meteohub,2013-04-20 08:32:00,
2013-04-20 04:37:00,48.6,36.9,29.91,NNW,331,4.0,12.0,64,0.01,,,0.02,meteohub,2013-04-20 08:37:00,
2013-04-20 04:42:00,48.4,37.6,29.92,NW,323,1.0,11.0,66,0.01,,,0.02,meteohub,2013-04-20 08:42:00,
2013-04-20 04:47:00,48.2,37.4,29.91,NNW,338,5.0,11.0,66,0.01,,,0.02,meteohub,2013-04-20 08:47:00,
2013-04-20 04:52:00,48.0,36.9,29.92,NW,321,2.0,6.0,65,0.01,,,0.02,meteohub,2013-04-20 08:52:00,
2013-04-20 04:57:00,48.0,37.6,29.92,WSW,256,2.0,6.0,67,0.01,,,0.02,meteohub,2013-04-20 08:57:00,
2013-04-20 05:02:00,48.2,35.8,29.92,NW,304,2.0,6.0,62,0.01,,,0.02,meteohub,2013-04-20 09:02:00,
2013-04-20 05:07:00,48.2,36.1,29.93,WNW,288,2.0,8.0,63,0.01,,,0.02,meteohub,2013-04-20 09:07:00,
2013-04-20 05:12:00,48.0,35.6,29.92,SW,233,4.0,8.0,62,0.01,,,0.02,meteohub,2013-04-20 09:12:00,
2013-04-20 05:17:00,48.0,36.5,29.93,WNW,294,1.0,9.0,64,0.01,,,0.02,meteohub,2013-04-20 09:17:00,
2013-04-20 05:22:00,47.8,35.8,29.94,North,355,2.0,9.0,63,0.01,,,0.02,meteohub,2013-04-20 09:22:00,
2013-04-20 05:27:00,47.8,35.1,29.94,SSW,211,5.0,7.0,61,0.01,,,0.02,meteohub,2013-04-20 09:27:00,
2013-04-20 05:32:00,47.8,35.4,29.94,WNW,302,3.0,10.0,62,0.00,,,0.02,meteohub,2013-04-20 09:32:00,
2013-04-20 05:37:00,47.8,34.2,29.94,West,261,1.0,10.0,59,0.00,,,0.02,meteohub,2013-04-20 09:37:00,
2013-04-20 05:42:00,47.7,34.5,29.95,NW,318,1.0,6.0,60,0.00,,,0.02,meteohub,2013-04-20 09:42:00,
2013-04-20 05:47:00,47.7,33.6,29.95,NW,319,3.0,8.0,58,0.00,,,0.02,meteohub,2013-04-20 09:47:00,
2013-04-20 05:52:00,47.8,33.3,29.95,WNW,301,3.0,8.0,57,0.00,,,0.02,meteohub,2013-04-20 09:52:00,
2013-04-20 05:57:00,47.8,33.8,29.96,NW,316,5.0,7.0,58,0.00,,,0.02,meteohub,2013-04-20 09:57:00,
2013-04-20 06:02:00,47.8,32.9,29.95,NNW,348,3.0,11.0,56,0.00,,,0.02,meteohub,2013-04-20 10:02:00,
2013-04-20 06:07:00,47.8,34.2,29.96,NNW,327,5.0,11.0,59,0.00,,,0.02,meteohub,2013-04-20 10:07:00,
2013-04-20 06:12:00,47.7,33.6,29.96,NNW,328,2.0,11.0,58,0.00,,,0.02,meteohub,2013-04-20 10:12:00,
2013-04-20 06:17:00,47.5,33.8,29.96,NNW,342,3.0,9.0,59,0.00,,,0.02,meteohub,2013-04-20 10:17:00,
2013-04-20 06:22:00,47.5,34.7,29.97,NW,304,2.0,9.0,61,0.00,,,0.02,meteohub,2013-04-20 10:22:00,
2013-04-20 06:27:00,47.1,34.0,29.97,WNW,302,0.0,5.0,60,0.00,,,0.02,meteohub,2013-04-20 10:27:00,
2013-04-20 06:32:00,46.9,34.5,29.98,WNW,292,0.0,5.0,62,0.00,,,0.02,meteohub,2013-04-20 10:32:00,
2013-04-20 06:37:00,46.9,34.2,29.98,NW,321,3.0,5.0,61,0.00,,,0.02,meteohub,2013-04-20 10:37:00,
2013-04-20 06:42:00,46.9,34.5,29.99,NNW,331,3.0,8.0,62,0.00,,,0.02,meteohub,2013-04-20 10:42:00,
2013-04-20 06:47:00,46.9,33.4,29.99,NW,308,5.0,8.0,59,0.00,,,0.02,meteohub,2013-04-20 10:47:00,
2013-04-20 06:52:00,46.9,32.9,29.99,NW,312,2.0,10.0,58,0.00,,,0.02,meteohub,2013-04-20 10:52:00,
2013-04-20 06:57:00,46.9,32.5,30.00,WSW,248,2.0,11.0,57,0.00,,,0.02,meteohub,2013-04-20 10:57:00,
2013-04-20 07:02:00,46.8,32.7,30.00,NW,311,7.0,11.0,58,0.00,,,0.02,meteohub,2013-04-20 11:02:00,
2013-04-20 07:07:00,46.6,31.3,30.00,NW,321,5.0,11.0,55,0.00,,,0.02,meteohub,2013-04-20 11:07:00,
2013-04-20 07:12:00,46.4,30.7,30.01,West,259,3.0,8.0,54,0.00,,,0.02,meteohub,2013-04-20 11:12:00,
2013-04-20 07:17:00,46.2,30.6,30.01,NW,306,5.0,8.0,54,0.00,,,0.02,meteohub,2013-04-20 11:17:00,
2013-04-20 07:22:00,46.2,29.5,30.01,NW,305,3.0,8.0,52,0.00,,,0.02,meteohub,2013-04-20 11:22:00,
2013-04-20 07:27:00,46.0,29.5,30.02,NNW,348,3.0,9.0,52,0.00,,,0.02,meteohub,2013-04-20 11:27:00,
2013-04-20 07:32:00,46.0,29.5,30.02,NW,315,2.0,9.0,52,0.00,,,0.02,meteohub,2013-04-20 11:32:00,
2013-04-20 07:37:00,46.0,29.8,30.03,NW,313,4.0,9.0,53,0.00,,,0.02,meteohub,2013-04-20 11:37:00,
2013-04-20 07:42:00,46.0,31.3,30.03,WSW,247,2.0,13.0,56,0.00,,,0.02,meteohub,2013-04-20 11:42:00,
2013-04-20 07:47:00,45.9,30.6,30.03,NW,318,4.0,13.0,55,0.00,,,0.02,meteohub,2013-04-20 11:47:00,
2013-04-20 07:52:00,45.9,29.3,30.03,NW,304,3.0,13.0,52,0.00,,,0.02,meteohub,2013-04-20 11:52:00,
2013-04-20 07:57:00,45.7,30.4,30.03,West,275,3.0,10.0,55,0.00,,,0.02,meteohub,2013-04-20 11:57:00,
2013-04-20 08:02:00,45.7,30.4,30.04,WNW,290,2.0,10.0,55,0.00,,,0.02,meteohub,2013-04-20 12:02:00,
2013-04-20 08:07:00,45.5,30.7,30.04,NNW,330,0.0,10.0,56,0.00,,,0.02,meteohub,2013-04-20 12:07:00,
2013-04-20 08:12:00,45.3,30.9,30.05,WNW,303,2.0,7.0,57,0.00,,,0.02,meteohub,2013-04-20 12:12:00,
2013-04-20 08:17:00,45.1,31.3,30.05,NW,304,1.0,7.0,58,0.01,,,0.03,meteohub,2013-04-20 12:17:00,
2013-04-20 08:22:00,45.0,30.6,30.05,West,272,2.0,3.0,57,0.01,,,0.03,meteohub,2013-04-20 12:22:00,
2013-04-20 08:27:00,45.0,31.1,30.06,WSW,257,2.0,3.0,58,0.01,,,0.03,meteohub,2013-04-20 12:27:00,
2013-04-20 08:32:00,45.0,30.2,30.06,WNW,292,1.0,3.0,56,0.01,,,0.03,meteohub,2013-04-20 12:32:00,
2013-04-20 08:37:00,45.3,30.9,30.06,WNW,294,2.0,4.0,57,0.01,,,0.03,meteohub,2013-04-20 12:37:00,
2013-04-20 08:42:00,46.4,31.1,30.05,NW,319,4.0,4.0,55,0.01,,,0.03,meteohub,2013-04-20 12:42:00,
2013-04-20 08:47:00,47.3,32.0,30.05,NNW,343,5.0,7.0,55,0.01,,,0.03,meteohub,2013-04-20 12:47:00,
2013-04-20 08:52:00,47.5,30.7,30.04,NW,315,8.0,10.0,52,0.01,,,0.03,meteohub,2013-04-20 12:52:00,
2013-04-20 08:57:00,47.7,30.4,30.05,WSW,257,4.0,10.0,51,0.01,,,0.03,meteohub,2013-04-20 12:57:00,
2013-04-20 09:02:00,48.4,31.6,30.05,NW,321,5.0,11.0,52,0.01,,,0.03,meteohub,2013-04-20 13:02:00,
2013-04-20 09:07:00,48.7,31.8,30.06,NW,313,3.0,11.0,52,0.01,,,0.03,meteohub,2013-04-20 13:07:00,
2013-04-20 09:12:00,49.3,30.9,30.06,NW,325,1.0,11.0,49,0.00,,,0.03,meteohub,2013-04-20 13:12:00,
2013-04-20 09:17:00,49.6,31.3,30.06,NNW,346,4.0,11.0,49,0.00,,,0.03,meteohub,2013-04-20 13:17:00,
2013-04-20 09:22:00,49.8,32.9,30.06,WNW,302,3.0,8.0,52,0.00,,,0.03,meteohub,2013-04-20 13:22:00,
2013-04-20 09:28:00,50.2,32.2,30.06,NW,306,6.0,8.0,50,0.00,,,0.03,meteohub,2013-04-20 13:28:00,
2013-04-20 09:33:00,49.8,31.5,30.06,NNW,332,4.0,13.0,49,0.00,,,0.03,meteohub,2013-04-20 13:33:00,
2013-04-20 09:37:00,50.0,30.6,30.07,North,350,2.0,13.0,47,0.00,,,0.03,meteohub,2013-04-20 13:37:00,
2013-04-20 09:42:00,50.2,30.7,30.07,NW,317,3.0,13.0,47,0.00,,,0.03,meteohub,2013-04-20 13:42:00,
2013-04-20 09:48:00,50.5,32.5,30.07,ENE,61,4.0,14.0,50,0.00,,,0.03,meteohub,2013-04-20 13:48:00,
2013-04-20 09:53:00,50.7,30.7,30.08,NW,323,4.0,14.0,46,0.00,,,0.03,meteohub,2013-04-20 13:53:00,
2013-04-20 09:58:00,51.1,33.1,30.09,NNW,331,5.0,14.0,50,0.00,,,0.03,meteohub,2013-04-20 13:58:00,
2013-04-20 10:03:00,51.4,34.0,30.09,WNW,295,2.0,11.0,51,0.00,,,0.03,meteohub,2013-04-20 14:03:00,
2013-04-20 10:08:00,52.0,32.4,30.09,NNW,331,4.0,11.0,47,0.00,,,0.03,meteohub,2013-04-20 14:08:00,
2013-04-20 10:13:00,51.8,33.3,30.09,North,0,1.0,11.0,49,0.00,,,0.03,meteohub,2013-04-20 14:13:00,
2013-04-20 10:18:00,52.0,32.9,30.09,North,355,2.0,10.0,48,0.00,,,0.03,meteohub,2013-04-20 14:18:00,
2013-04-20 10:23:00,52.2,34.2,30.10,NNW,329,3.0,10.0,50,0.01,,,0.04,meteohub,2013-04-20 14:23:00,
2013-04-20 10:28:00,52.3,33.8,30.10,NNW,337,5.0,10.0,49,0.01,,,0.04,meteohub,2013-04-20 14:28:00,
2013-04-20 10:33:00,52.2,32.0,30.10,NW,304,3.0,10.0,46,0.01,,,0.04,meteohub,2013-04-20 14:33:00,
2013-04-20 10:38:00,52.2,32.0,30.10,NNW,331,6.0,10.0,46,0.01,,,0.04,meteohub,2013-04-20 14:38:00,
2013-04-20 10:43:00,52.5,34.3,30.11,WSW,255,5.0,10.0,50,0.01,,,0.04,meteohub,2013-04-20 14:43:00,
2013-04-20 10:48:00,53.4,33.1,30.10,SW,223,6.0,10.0,46,0.01,,,0.04,meteohub,2013-04-20 14:48:00,
2013-04-20 10:53:00,53.8,34.0,30.11,NW,309,5.0,10.0,47,0.01,,,0.04,meteohub,2013-04-20 14:53:00,
2013-04-20 10:58:00,54.0,33.6,30.10,WNW,296,2.0,11.0,46,0.01,,,0.04,meteohub,2013-04-20 14:58:00,
2013-04-20 11:03:00,54.1,32.7,30.10,WNW,287,2.0,11.0,44,0.01,,,0.04,meteohub,2013-04-20 15:03:00,
2013-04-20 11:08:00,54.5,37.2,30.10,WSW,249,2.0,7.0,52,0.01,,,0.04,meteohub,2013-04-20 15:08:00,
2013-04-20 11:13:00,54.5,33.6,30.11,North,351,4.0,7.0,45,0.01,,,0.04,meteohub,2013-04-20 15:13:00,
2013-04-20 11:18:00,54.3,34.0,30.11,NW,305,12.0,12.0,46,0.01,,,0.04,meteohub,2013-04-20 15:18:00,
2013-04-20 11:23:00,55.2,34.9,30.10,NW,326,5.0,9.0,46,0.00,,,0.04,meteohub,2013-04-20 15:23:00,
2013-04-20 11:28:00,55.2,34.2,30.11,West,275,2.0,12.0,45,0.00,,,0.04,meteohub,2013-04-20 15:28:00,
2013-04-20 11:33:00,55.0,31.8,30.11,North,5,3.0,12.0,41,0.00,,,0.04,meteohub,2013-04-20 15:33:00,
2013-04-20 11:38:00,54.9,33.4,30.10,NNW,347,4.0,11.0,44,0.00,,,0.04,meteohub,2013-04-20 15:38:00,
2013-04-20 11:43:00,54.9,33.4,30.11,NW,319,4.0,11.0,44,0.00,,,0.04,meteohub,2013-04-20 15:43:00,
2013-04-20 11:48:00,55.0,32.9,30.11,NNW,332,1.0,11.0,43,0.00,,,0.04,meteohub,2013-04-20 15:48:00,
2013-04-20 11:53:00,55.8,34.2,30.10,NNW,330,2.0,11.0,44,0.00,,,0.04,meteohub,2013-04-20 15:53:00,
2013-04-20 11:58:00,56.1,34.0,30.11,SW,224,2.0,11.0,43,0.00,,,0.04,meteohub,2013-04-20 15:58:00,
2013-04-20 12:03:00,57.0,37.6,30.11,NW,317,10.0,10.0,48,0.00,,,0.04,meteohub,2013-04-20 16:03:00,
2013-04-20 12:08:00,56.8,33.4,30.11,SSE,156,3.0,11.0,41,0.00,,,0.04,meteohub,2013-04-20 16:08:00,
2013-04-20 12:13:00,56.7,34.3,30.11,NW,306,4.0,11.0,43,0.00,,,0.04,meteohub,2013-04-20 16:13:00,
2013-04-20 12:18:00,56.7,33.3,30.10,NNW,329,4.0,11.0,41,0.00,,,0.04,meteohub,2013-04-20 16:18:00,
2013-04-20 12:23:00,56.5,32.4,30.10,NW,323,8.0,10.0,40,0.00,,,0.04,meteohub,2013-04-20 16:23:00,
2013-04-20 12:28:00,55.8,31.8,30.10,NW,312,2.0,10.0,40,0.00,,,0.04,meteohub,2013-04-20 16:28:00,
2013-04-20 12:33:00,55.6,31.6,30.10,NW,325,4.0,10.0,40,0.00,,,0.04,meteohub,2013-04-20 16:33:00,
2013-04-20 12:38:00,55.8,32.4,30.10,NW,326,0.0,11.0,41,0.00,,,0.04,meteohub,2013-04-20 16:38:00,
2013-04-20 12:43:00,56.1,33.3,30.10,WSW,241,12.0,12.0,42,0.00,,,0.04,meteohub,2013-04-20 16:43:00,
2013-04-20 12:48:00,56.1,32.2,30.11,West,259,5.0,13.0,40,0.00,,,0.04,meteohub,2013-04-20 16:48:00,
2013-04-20 12:53:00,55.9,32.5,30.10,NW,305,2.0,13.0,41,0.01,,,0.05,meteohub,2013-04-20 16:53:00,
2013-04-20 12:59:00,56.1,32.2,30.10,SSW,206,4.0,13.0,40,0.01,,,0.05,meteohub,2013-04-20 16:59:00,
2013-04-20 13:04:00,56.8,30.9,30.10,NW,317,9.0,10.0,37,0.01,,,0.05,meteohub,2013-04-20 17:04:00,
2013-04-20 13:09:00,56.7,32.0,30.10,West,270,6.0,10.0,39,0.01,,,0.05,meteohub,2013-04-20 17:09:00,
2013-04-20 13:14:00,57.0,31.6,30.10,WNW,299,1.0,12.0,38,0.01,,,0.05,meteohub,2013-04-20 17:14:00,
2013-04-20 13:19:00,57.4,32.5,30.10,NNW,342,4.0,12.0,39,0.01,,,0.05,meteohub,2013-04-20 17:19:00,
2013-04-20 13:24:00,56.8,30.2,30.10,NW,318,4.0,12.0,36,0.01,,,0.05,meteohub,2013-04-20 17:24:00,
2013-04-20 13:29:00,57.0,31.6,30.09,SW,235,8.0,12.0,38,0.01,,,0.05,meteohub,2013-04-20 17:29:00,
2013-04-20 13:34:00,57.0,33.6,30.10,NNE,22,7.0,12.0,41,0.01,,,0.05,meteohub,2013-04-20 17:34:00,
2013-04-20 13:39:00,57.0,30.9,30.10,NNW,327,2.0,12.0,37,0.01,,,0.05,meteohub,2013-04-20 17:39:00,
2013-04-20 13:44:00,57.7,34.2,30.09,NNW,338,4.0,12.0,41,0.01,,,0.05,meteohub,2013-04-20 17:44:00,
2013-04-20 13:49:00,57.4,29.3,30.09,NW,320,4.0,10.0,34,0.01,,,0.05,meteohub,2013-04-20 17:49:00,
2013-04-20 13:54:00,57.7,34.9,30.09,NNW,333,4.0,11.0,42,0.00,,,0.05,meteohub,2013-04-20 17:54:00,
2013-04-20 13:59:00,57.9,34.9,30.09,North,355,3.0,11.0,42,0.00,,,0.05,meteohub,2013-04-20 17:59:00,
2013-04-20 14:04:00,58.3,32.2,30.10,NNW,336,4.0,10.0,37,0.00,,,0.05,meteohub,2013-04-20 18:04:00,
2013-04-20 14:09:00,57.9,33.1,30.10,NNW,333,4.0,10.0,39,0.00,,,0.05,meteohub,2013-04-20 18:09:00,
2013-04-20 14:14:00,58.5,32.4,30.09,NW,317,3.0,9.0,37,0.00,,,0.05,meteohub,2013-04-20 18:14:00,
2013-04-20 14:19:00,58.3,30.7,30.10,WNW,288,2.0,9.0,35,0.00,,,0.05,meteohub,2013-04-20 18:19:00,
2013-04-20 14:24:00,57.9,32.5,30.09,NNW,338,5.0,11.0,38,0.00,,,0.05,meteohub,2013-04-20 18:24:00,
2013-04-20 14:29:00,58.3,32.7,30.10,NNW,334,0.0,11.0,38,0.00,,,0.05,meteohub,2013-04-20 18:29:00,
2013-04-20 14:34:00,58.6,32.4,30.10,North,5,3.0,12.0,37,0.00,,,0.05,meteohub,2013-04-20 18:34:00,
2013-04-20 14:39:00,58.8,33.3,30.10,North,355,4.0,12.0,38,0.00,,,0.05,meteohub,2013-04-20 18:39:00,
2013-04-20 14:44:00,58.8,34.0,30.10,NW,322,3.0,12.0,39,0.00,,,0.05,meteohub,2013-04-20 18:44:00,
2013-04-20 14:49:00,59.2,34.9,30.10,NW,320,2.0,11.0,40,0.00,,,0.05,meteohub,2013-04-20 18:49:00,
2013-04-20 14:54:00,59.7,32.7,30.10,NNW,345,3.0,8.0,36,0.00,,,0.05,meteohub,2013-04-20 18:54:00,
2013-04-20 14:59:00,59.7,33.4,30.10,NNW,331,3.0,12.0,37,0.00,,,0.05,meteohub,2013-04-20 18:59:00,
2013-04-20 15:04:00,59.7,33.4,30.10,NW,313,5.0,12.0,37,0.00,,,0.05,meteohub,2013-04-20 19:04:00,
2013-04-20 15:09:00,59.5,34.0,30.10,North,351,3.0,12.0,38,0.00,,,0.05,meteohub,2013-04-20 19:09:00,
2013-04-20 15:14:00,59.5,32.5,30.11,South,169,4.0,12.0,36,0.01,,,0.06,meteohub,2013-04-20 19:14:00,
2013-04-20 15:19:00,59.2,32.9,30.10,WNW,292,1.0,12.0,37,0.01,,,0.06,meteohub,2013-04-20 19:19:00,
2013-04-20 15:24:00,58.8,33.3,30.11,WNW,295,3.0,12.0,38,0.01,,,0.06,meteohub,2013-04-20 19:24:00,
2013-04-20 15:29:00,58.8,32.0,30.11,NW,321,3.0,11.0,36,0.01,,,0.06,meteohub,2013-04-20 19:29:00,
2013-04-20 15:34:00,58.6,30.4,30.11,NW,313,4.0,10.0,34,0.01,,,0.06,meteohub,2013-04-20 19:34:00,
2013-04-20 15:39:00,58.5,31.6,30.11,WNW,303,1.0,16.0,36,0.01,,,0.06,meteohub,2013-04-20 19:39:00,
2013-04-20 15:44:00,57.7,32.4,30.11,NW,323,4.0,16.0,38,0.01,,,0.06,meteohub,2013-04-20 19:44:00,
2013-04-20 15:49:00,57.6,32.7,30.11,WNW,302,3.0,16.0,39,0.01,,,0.06,meteohub,2013-04-20 19:49:00,
2013-04-20 15:54:00,57.9,33.8,30.11,North,355,7.0,10.0,40,0.01,,,0.06,meteohub,2013-04-20 19:54:00,
2013-04-20 15:59:00,57.9,30.4,30.11,WNW,300,4.0,8.0,35,0.01,,,0.06,meteohub,2013-04-20 19:59:00,
2013-04-20 16:04:00,57.4,30.6,30.11,SSE,159,4.0,12.0,36,0.01,,,0.06,meteohub,2013-04-20 20:04:00,
2013-04-20 16:09:00,57.2,29.8,30.12,NW,309,1.0,12.0,35,0.01,,,0.06,meteohub,2013-04-20 20:09:00,
2013-04-20 16:14:00,57.7,30.9,30.12,NNW,342,6.0,10.0,36,0.00,,,0.06,meteohub,2013-04-20 20:14:00,
2013-04-20 16:19:00,58.3,32.7,30.12,NNW,338,2.0,11.0,38,0.00,,,0.06,meteohub,2013-04-20 20:19:00,
2013-04-20 16:24:00,58.5,31.6,30.12,North,355,0.0,11.0,36,0.00,,,0.06,meteohub,2013-04-20 20:24:00,
2013-04-20 16:29:00,58.5,29.5,30.12,NW,313,3.0,11.0,33,0.00,,,0.06,meteohub,2013-04-20 20:29:00,
2013-04-20 16:34:00,58.5,29.5,30.12,NW,315,3.0,12.0,33,0.00,,,0.06,meteohub,2013-04-20 20:34:00,
2013-04-20 16:39:00,58.8,28.9,30.12,North,10,8.0,12.0,32,0.00,,,0.06,meteohub,2013-04-20 20:39:00,
2013-04-20 16:44:00,58.8,28.9,30.12,North,355,3.0,12.0,32,0.00,,,0.06,meteohub,2013-04-20 20:44:00,
2013-04-20 16:50:00,58.8,30.6,30.12,West,263,3.0,12.0,34,0.00,,,0.06,meteohub,2013-04-20 20:50:00,
2013-04-20 16:54:00,59.0,30.7,30.13,West,279,2.0,12.0,34,0.00,,,0.06,meteohub,2013-04-20 20:54:00,
2013-04-20 17:00:00,59.2,31.5,30.13,NW,323,3.0,10.0,35,0.00,,,0.06,meteohub,2013-04-20 21:00:00,
2013-04-20 17:05:00,59.2,30.0,30.13,WNW,288,2.0,10.0,33,0.00,,,0.06,meteohub,2013-04-20 21:05:00,
2013-04-20 17:10:00,58.8,31.3,30.13,WNW,294,2.0,10.0,35,0.00,,,0.06,meteohub,2013-04-20 21:10:00,
2013-04-20 17:15:00,58.6,29.7,30.14,NNW,336,4.0,10.0,33,0.00,,,0.06,meteohub,2013-04-20 21:15:00,
2013-04-20 17:20:00,58.5,31.6,30.14,NW,314,2.0,9.0,36,0.00,,,0.06,meteohub,2013-04-20 21:20:00,
2013-04-20 17:25:00,58.5,28.8,30.14,South,188,2.0,11.0,32,0.00,,,0.06,meteohub,2013-04-20 21:25:00,
2013-04-20 17:30:00,58.3,30.0,30.14,NNW,331,7.0,11.0,34,0.00,,,0.06,meteohub,2013-04-20 21:30:00,
2013-04-20 17:35:00,58.3,29.3,30.14,ENE,70,2.0,11.0,33,0.00,,,0.06,meteohub,2013-04-20 21:35:00,
2013-04-20 17:40:00,58.1,29.8,30.15,SW,225,2.0,10.0,34,0.00,,,0.06,meteohub,2013-04-20 21:40:00,
2013-04-20 17:45:00,58.5,30.9,30.15,NNW,345,3.0,14.0,35,0.00,,,0.06,meteohub,2013-04-20 21:45:00,
2013-04-20 17:50:00,58.5,28.8,30.15,North,5,4.0,14.0,32,0.00,,,0.06,meteohub,2013-04-20 21:50:00,
2013-04-20 17:55:00,58.5,28.8,30.15,NNW,337,2.0,14.0,32,0.00,,,0.06,meteohub,2013-04-20 21:55:00,
2013-04-20 18:00:00,58.1,28.4,30.15,NNW,328,8.0,9.0,32,0.00,,,0.06,meteohub,2013-04-20 22:00:00,
2013-04-20 18:05:00,57.7,28.0,30.16,WNW,295,3.0,9.0,32,0.00,,,0.06,meteohub,2013-04-20 22:05:00,
2013-04-20 18:10:00,57.7,28.8,30.16,NW,317,1.0,8.0,33,0.00,,,0.06,meteohub,2013-04-20 22:10:00,
2013-04-20 18:15:00,57.6,29.5,30.16,NW,313,6.0,8.0,34,0.00,,,0.06,meteohub,2013-04-20 22:15:00,
2013-04-20 18:20:00,57.6,28.6,30.16,NNW,336,1.0,7.0,33,0.00,,,0.06,meteohub,2013-04-20 22:20:00,
2013-04-20 18:25:00,57.2,28.4,30.16,North,5,6.0,8.0,33,0.00,,,0.06,meteohub,2013-04-20 22:25:00,
2013-04-20 18:30:00,56.8,28.0,30.17,WSW,249,0.0,8.0,33,0.00,,,0.06,meteohub,2013-04-20 22:30:00,
2013-04-20 18:35:00,56.7,28.6,30.17,NW,321,3.0,6.0,34,0.00,,,0.06,meteohub,2013-04-20 22:35:00,
2013-04-20 18:40:00,56.7,27.9,30.17,North,355,5.0,6.0,33,0.00,,,0.06,meteohub,2013-04-20 22:40:00,
2013-04-20 18:45:00,56.5,27.7,30.17,SW,226,2.0,10.0,33,0.00,,,0.06,meteohub,2013-04-20 22:45:00,
2013-04-20 18:50:00,56.3,29.7,30.18,NNW,342,3.0,10.0,36,0.00,,,0.06,meteohub,2013-04-20 22:50:00,
2013-04-20 18:55:00,56.1,28.8,30.18,NNW,333,1.0,7.0,35,0.00,,,0.06,meteohub,2013-04-20 22:55:00,
2013-04-20 19:00:00,55.9,28.8,30.18,NW,321,1.0,6.0,35,0.00,,,0.06,meteohub,2013-04-20 23:00:00,
2013-04-20 19:05:00,55.8,29.8,30.19,NW,316,3.0,5.0,37,0.00,,,0.06,meteohub,2013-04-20 23:05:00,
2013-04-20 19:10:00,55.6,27.7,30.19,North,5,2.0,7.0,34,0.00,,,0.06,meteohub,2013-04-20 23:10:00,
2013-04-20 19:15:00,55.4,29.5,30.19,NW,319,0.0,7.0,37,0.00,,,0.06,meteohub,2013-04-20 23:15:00,
2013-04-20 19:20:00,55.2,29.5,30.19,NNW,342,2.0,7.0,37,0.00,,,0.06,meteohub,2013-04-20 23:20:00,
2013-04-20 19:25:00,55.0,29.3,30.19,North,0,0.0,4.0,37,0.00,,,0.06,meteohub,2013-04-20 23:25:00,
2013-04-20 19:30:00,54.9,29.1,30.19,NNW,332,1.0,4.0,37,0.00,,,0.06,meteohub,2013-04-20 23:30:00,
2013-04-20 19:35:00,54.7,28.9,30.20,West,279,2.0,4.0,37,0.00,,,0.06,meteohub,2013-04-20 23:35:00,
2013-04-20 19:40:00,54.3,29.8,30.20,NW,316,2.0,4.0,39,0.00,,,0.06,meteohub,2013-04-20 23:40:00,
2013-04-20 19:45:00,54.1,29.7,30.20,NNW,328,2.0,4.0,39,0.00,,,0.06,meteohub,2013-04-20 23:45:00,
2013-04-20 19:50:00,54.0,30.7,30.21,West,269,0.0,4.0,41,0.00,,,0.06,meteohub,2013-04-20 23:50:00,
2013-04-20 19:55:00,53.6,29.8,30.21,WNW,283,1.0,4.0,40,0.00,,,0.06,meteohub,2013-04-20 23:55:00,
2013-04-20 20:00:00,53.4,29.1,30.21,NNW,327,1.0,4.0,39,0.00,,,0.06,meteohub,2013-04-21 00:00:00,
2013-04-20 20:05:00,53.4,30.4,30.22,NNW,327,2.0,4.0,41,0.00,,,0.06,meteohub,2013-04-21 00:05:00,
2013-04-20 20:10:00,53.1,30.0,30.22,NNW,327,1.0,4.0,41,0.00,,,0.06,meteohub,2013-04-21 00:10:00,
2013-04-20 20:15:00,53.1,30.6,30.23,NNW,327,0.0,3.0,42,0.00,,,0.06,meteohub,2013-04-21 00:15:00,
2013-04-20 20:20:00,52.7,30.2,30.23,NNW,327,1.0,3.0,42,0.00,,,0.06,meteohub,2013-04-21 00:20:00,
2013-04-20 20:25:00,52.3,31.1,30.24,NNW,327,0.0,2.0,44,0.00,,,0.06,meteohub,2013-04-21 00:25:00,
2013-04-20 20:30:00,52.0,31.8,30.25,NNW,327,1.0,2.0,46,0.00,,,0.06,meteohub,2013-04-21 00:30:00,
2013-04-20 20:35:00,51.4,30.7,30.25,NNW,327,1.0,2.0,45,0.00,,,0.06,meteohub,2013-04-21 00:35:00,
2013-04-20 20:40:00,51.3,30.6,30.25,NNW,327,0.0,2.0,45,0.00,,,0.06,meteohub,2013-04-21 00:40:00,
2013-04-20 20:45:00,51.1,31.1,30.26,NNW,327,0.0,2.0,46,0.00,,,0.06,meteohub,2013-04-21 00:45:00,
2013-04-20 20:50:00,50.7,31.3,30.27,NNW,327,0.0,1.0,47,0.00,,,0.06,meteohub,2013-04-21 00:50:00,
2013-04-20 20:55:00,50.5,30.6,30.27,NNW,327,0.0,2.0,46,0.00,,,0.06,meteohub,2013-04-21 00:55:00,
2013-04-20 21:00:00,50.2,30.7,30.27,NNW,327,0.0,2.0,47,0.00,,,0.06,meteohub,2013-04-21 01:00:00,
2013-04-20 21:05:00,49.8,30.9,30.28,North,5,0.0,2.0,48,0.00,,,0.06,meteohub,2013-04-21 01:05:00,
2013-04-20 21:10:00,49.6,31.3,30.28,North,5,0.0,1.0,49,0.00,,,0.06,meteohub,2013-04-21 01:10:00,
2013-04-20 21:16:00,49.5,31.1,30.29,North,5,0.0,2.0,49,0.00,,,0.06,meteohub,2013-04-21 01:16:00,
2013-04-20 21:21:00,49.3,29.8,30.29,North,10,0.0,3.0,47,0.00,,,0.06,meteohub,2013-04-21 01:21:00,
2013-04-20 21:26:00,49.3,29.8,30.29,North,9,1.0,3.0,47,0.00,,,0.06,meteohub,2013-04-21 01:26:00,
2013-04-20 21:31:00,49.3,30.4,30.29,ENE,65,1.0,3.0,48,0.00,,,0.06,meteohub,2013-04-21 01:31:00,
2013-04-20 21:36:00,49.1,29.7,30.30,ENE,65,0.0,2.0,47,0.00,,,0.06,meteohub,2013-04-21 01:36:00,
2013-04-20 21:41:00,48.9,30.0,30.30,NE,55,0.0,2.0,48,0.00,,,0.06,meteohub,2013-04-21 01:41:00,
2013-04-20 21:46:00,48.9,30.0,30.30,NE,55,0.0,3.0,48,0.00,,,0.06,meteohub,2013-04-21 01:46:00,
2013-04-20 21:51:00,48.7,30.9,30.30,NE,55,0.0,3.0,50,0.00,,,0.06,meteohub,2013-04-21 01:51:00,
2013-04-20 21:56:00,48.6,30.2,30.31,NE,54,1.0,2.0,49,0.00,,,0.06,meteohub,2013-04-21 01:56:00,
2013-04-20 22:01:00,48.4,29.7,30.31,North,355,0.0,2.0,48,0.00,,,0.06,meteohub,2013-04-21 02:01:00,
2013-04-20 22:06:00,48.4,30.0,30.32,North,355,2.0,2.0,49,0.00,,,0.06,meteohub,2013-04-21 02:06:00,
2013-04-20 22:11:00,48.4,30.0,30.32,NNW,330,1.0,3.0,49,0.00,,,0.06,meteohub,2013-04-21 02:11:00,
2013-04-20 22:16:00,48.6,29.3,30.32,NNW,346,0.0,3.0,47,0.00,,,0.06,meteohub,2013-04-21 02:16:00,
2013-04-20 22:21:00,48.6,29.8,30.32,NNW,328,0.0,3.0,48,0.00,,,0.06,meteohub,2013-04-21 02:21:00,
2013-04-20 22:26:00,48.6,29.3,30.33,NNW,328,0.0,3.0,47,0.00,,,0.06,meteohub,2013-04-21 02:26:00,
2013-04-20 22:31:00,48.4,30.0,30.33,NNW,348,1.0,3.0,49,0.00,,,0.06,meteohub,2013-04-21 02:31:00,
2013-04-20 22:36:00,48.0,29.8,30.33,NNW,348,1.0,3.0,49,0.00,,,0.06,meteohub,2013-04-21 02:36:00,
2013-04-20 22:41:00,47.8,28.6,30.33,NNW,328,1.0,3.0,47,0.00,,,0.06,meteohub,2013-04-21 02:41:00,
2013-04-20 22:46:00,47.8,29.1,30.33,North,355,0.0,3.0,48,0.00,,,0.06,meteohub,2013-04-21 02:46:00,
2013-04-20 22:51:00,47.7,28.9,30.34,NW,307,1.0,3.0,48,0.00,,,0.06,meteohub,2013-04-21 02:51:00,
2013-04-20 22:56:00,47.7,29.5,30.34,NW,308,0.0,3.0,49,0.00,,,0.06,meteohub,2013-04-21 02:56:00,
2013-04-20 23:01:00,47.5,29.3,30.34,NW,308,0.0,3.0,49,0.00,,,0.06,meteohub,2013-04-21 03:01:00,
2013-04-20 23:06:00,47.3,28.6,30.34,NW,308,1.0,3.0,48,0.00,,,0.06,meteohub,2013-04-21 03:06:00,
2013-04-20 23:11:00,47.1,28.4,30.34,NW,309,0.0,3.0,48,0.00,,,0.06,meteohub,2013-04-21 03:11:00,
2013-04-20 23:16:00,46.9,28.8,30.35,NW,309,0.0,3.0,49,0.00,,,0.06,meteohub,2013-04-21 03:16:00,
2013-04-20 23:21:00,46.8,29.1,30.35,NW,309,0.0,2.0,50,0.00,,,0.06,meteohub,2013-04-21 03:21:00,
2013-04-20 23:26:00,46.6,28.9,30.35,NW,309,0.0,2.0,50,0.00,,,0.06,meteohub,2013-04-21 03:26:00,
2013-04-20 23:31:00,46.2,28.6,30.35,NW,309,0.0,2.0,50,0.00,,,0.06,meteohub,2013-04-21 03:31:00,
2013-04-20 23:36:00,46.0,29.5,30.35,NW,309,0.0,2.0,52,0.00,,,0.06,meteohub,2013-04-21 03:36:00,
2013-04-20 23:41:00,45.9,28.8,30.35,North,5,0.0,2.0,51,0.00,,,0.06,meteohub,2013-04-21 03:41:00,
2013-04-20 23:46:00,45.7,28.6,30.36,North,5,0.0,2.0,51,0.00,,,0.06,meteohub,2013-04-21 03:46:00,
2013-04-20 23:51:00,45.5,28.4,30.36,North,5,0.0,2.0,51,0.00,,,0.06,meteohub,2013-04-21 03:51:00,
2013-04-20 23:56:00,45.3,29.1,30.36,North,5,0.0,2.0,53,0.00,,,0.06,meteohub,2013-04-21 03:56:00,